Temp
60 60 61 58 56 57 57 57 55 55 53 51 50 50 49 51 53 54 57 58 59 60 59 58 59 59 58 59 62 60 57 57 58 57 57 60 63 63 64 66 66 65 66
57 59 58 57 56 55 56 56 56 55 53 52 51 51 50 51 53 54 55 57 59 60 59 55 55 56 57 58 59 60 58 57 57 54 54 53 57 59 61 61 62 63 63
57 58 59 56 55 54 54 56 56 54 53 53 52 52 52 51 51 52 52 55 57 59 56 55 56 56 55 56 55 55 57 52 55 58 56 51 50 55 58 59 60 60 60
57 57 56 55 56 56 55 55 55 54 55 53 51 49 48 47 50 50 53 56 55 58 54 55 55 56 57 55 55 58 54 54 53 55 57 56 55 51 52 57 57 59 60
54 54 54 58 56 57 54 53 54 54 53 52 51 49 49 49 50 51 55 57 55 55 53 54 54 54 55 54 56 56 56 55 55 54 55 56 54 55 51 49 54 57 59
53 55 56 57 55 55 54 53 53 53 53 52 51 50 49 49 48 49 54 54 51 53 51 51 52 53 53 53 55 57 56 57 57 56 55 57 56 56 51 50 51 52 55
53 54 54 55 55 54 54 54 53 52 53 52 51 51 50 49 49 49 50 51 52 52 49 49 48 47 49 52 52 54 54 55 54 56 56 57 56 57 57 54 50 52 54
56 55 55 55 54 56 54 54 53 52 52 51 51 50 50 49 49 50 50 48 48 48 49 48 48 48 48 49 50 53 54 55 54 53 54 55 54 53 52 54 54 50 52
54 54 54 55 55 54 54 54 53 53 52 51 50 49 49 49 49 50 50 49 49 51 49 48 48 48 48 49 50 49 49 49 49 49 49 50 50 49 49 50 50 51 47
53 54 55 55 56 55 55 54 53 52 52 51 50 50 49 50 49 49 49 49 49 50 49 49 48 48 48 48 49 48 49 48 47 48 47 47 47 47 46 46 47 47 45
53 54 55 56 56 55 55 54 53 52 51 51 50 49 48 49 49 49 48 48 49 49 49 49 49 48 48 48 48 48 48 47 47 46 46 45 46 44 44 45 45 44 43
54 54 55 55 55 55 55 55 55 54 53 52 51 49 49 49 48 48 48 49 48 49 48 48 48 48 48 47 46 46 46 45 45 45 44 44 48 43 43 42 42 41 41
54 54 54 54 54 55 55 56 56 55 55 53 51 50 49 49 47 48 49 49 48 47 48 48 46 46 47 45 45 45 44 43 42 42 42 42 42 40 39 40 39 39 43
53 53 52 52 53 54 55 54 54 54 53 52 50 48 47 47 47 47 48 47 46 45 45 46 46 46 45 46 45 44 43 42 41 42 41 41 40 39 39 40 38 40 37
53 52 52 53 55 55 53 55 53 53 53 50 49 48 47 47 47 46 46 46 45 45 44 44 44 44 44 46 43 44 42 41 40 41 42 41 40 42 41 39 37 37 36
52 53 54 54 53 53 54 55 54 52 51 50 48 48 47 46 45 45 44 44 42 42 42 41 41 41 46 48 48 44 40 42 42 40 40 38 41 41 43 43 43 41 35
51 51 52 52 53 52 54 53 53 52 50 49 49 48 47 46 45 44 43 42 40 40 40 40 40 40 41 48 48 47 40 40 39 39 40 40 43 41 38 42 43 43 44
50 51 51 51 52 52 52 52 51 49 49 48 47 48 47 45 44 43 41 40 40 40 40 40 39 39 42 47 47 46 39 39 40 40 39 39 39 39 40 39 37 38 39
51 51 50 51 50 50 51 51 50 49 47 49 47 47 46 44 43 41 41 40 39 39 40 41 39 38 39 46 46 44 38 38 39 40 40 39 38 43 43 38 37 37 38
49 48 48 49 48 48 50 48 48 48 48 49 49 48 47 45 43 42 41 42 43 41 38 39 39 41 38 45 46 44 39 37 38 38 40 44 41 43 43 37 36 34 35
48 48 47 47 47 48 47 46 46 46 48 48 48 48 47 45 44 42 41 41 39 39 38 38 38 38 39 38 46 45 40 39 38 38 37 39 43 42 42 42 36 35 37
46 47 44 46 48 47 46 45 44 47 47 47 46 46 47 47 47 41 39 40 39 37 38 39 38 40 40 43 45 45 44 43 38 37 39 39 43 42 41 40 39 40 39
45 45 43 44 45 45 44 42 45 46 46 46 45 45 45 45 44 39 37 35 37 36 36 37 38 38 38 39 45 46 45 45 40 39 40 42 42 41 39 39 39 39 33
43 43 42 42 43 45 46 44 45 46 44 43 43 43 42 43 41 40 38 35 36 37 38 37 36 38 36 38 38 41 42 43 42 41 39 39 37 37 35 36 36 33 32
43 42 41 42 42 44 44 45 46 45 42 41 42 41 42 41 41 39 38 37 39 40 38 37 38 37 35 37 39 38 37 38 39 38 35 33 32 30 31 31 31 31 31
43 42 43 41 42 43 43 44 45 45 42 41 42 41 41 40 40 38 38 43 44 45 44 45 41 39 43 42 41 40 40 39 40 36 32 31 30 30 31 31 31 31 32
MSLP
1014.71 1015.32 1015.81 1016.12 1016.35 1016.61 1016.75 1016.84 1016.98 1016.99 1016.92 1016.84 1016.84 1016.62 1016.58 1016.27 1015.99 1015.59 1015.27 1014.98 1014.56 1014.15 1013.79 1013.69 1013.32 1012.77 1012.36 1011.89 1011.44 1011.04 1010.85 1010.49 1010.01 1010.23 1009.96 1009.37 1009.24 1009.30 1009.63 1009.61 1009.68 1009.79 1010.21
1014.99 1015.51 1015.97 1016.15 1016.39 1016.60 1016.71 1016.72 1016.73 1016.76 1016.81 1016.86 1016.89 1016.77 1016.57 1016.22 1016.02 1015.60 1015.42 1015.16 1014.74 1014.27 1014.02 1014.00 1013.58 1012.97 1012.40 1011.74 1011.21 1010.82 1010.64 1010.39 1009.89 1010.17 1010.04 1009.44 1009.56 1009.96 1009.92 1009.83 1009.80 1010.23 1010.07
1014.81 1015.27 1015.60 1015.90 1016.04 1016.22 1016.31 1016.43 1016.49 1016.64 1016.76 1016.77 1016.76 1016.65 1016.50 1016.39 1016.12 1015.74 1015.49 1015.21 1014.87 1014.45 1014.32 1014.11 1013.77 1013.05 1012.54 1011.68 1010.93 1010.67 1010.75 1011.00 1009.82 1009.74 1009.84 1009.46 1009.73 1010.41 1010.51 1010.45 1009.73 1010.40 1010.86
1014.87 1015.14 1015.32 1015.56 1015.76 1015.76 1015.89 1016.04 1016.24 1016.42 1016.49 1016.55 1016.72 1016.85 1016.71 1016.61 1016.24 1015.87 1015.48 1015.11 1014.91 1014.42 1014.42 1014.22 1013.77 1013.24 1012.58 1011.83 1010.89 1010.34 1010.16 1010.00 1009.71 1009.46 1009.39 1009.19 1009.51 1010.30 1010.75 1010.85 1010.62 1010.17 1010.97
1015.03 1015.06 1015.16 1015.31 1015.44 1015.63 1015.85 1015.92 1016.05 1016.19 1016.25 1016.37 1016.56 1016.67 1016.60 1016.42 1015.95 1015.63 1015.25 1015.09 1014.88 1014.53 1014.51 1014.32 1013.84 1013.40 1012.75 1012.21 1011.37 1010.39 1010.13 1009.66 1009.47 1009.47 1009.44 1009.36 1009.58 1009.92 1010.30 1011.00 1011.11 1011.07 1010.71
1015.05 1015.04 1015.14 1015.23 1015.47 1015.52 1015.68 1015.87 1015.99 1016.02 1016.09 1016.26 1016.40 1016.45 1016.36 1016.09 1015.88 1015.64 1015.33 1015.15 1015.11 1014.89 1014.63 1014.48 1014.09 1013.60 1013.11 1012.53 1012.09 1011.42 1010.79 1010.13 1009.76 1009.47 1009.60 1009.73 1009.89 1010.03 1010.39 1010.64 1011.08 1011.10 1011.03
1015.20 1015.27 1015.32 1015.24 1015.32 1015.31 1015.34 1015.49 1015.65 1015.79 1015.86 1015.93 1015.97 1015.90 1015.84 1015.73 1015.67 1015.56 1015.41 1015.30 1015.26 1015.08 1014.74 1014.50 1014.22 1013.97 1013.48 1012.94 1012.30 1011.89 1011.38 1010.84 1010.57 1010.28 1010.12 1010.09 1010.17 1010.21 1010.21 1010.37 1010.99 1011.19 1011.31
1015.27 1015.37 1015.29 1015.15 1015.04 1014.88 1014.80 1014.89 1015.04 1015.13 1015.28 1015.36 1015.40 1015.35 1015.35 1015.32 1015.24 1015.07 1014.88 1014.76 1014.70 1014.64 1014.53 1014.34 1014.11 1013.78 1013.54 1013.11 1012.60 1012.02 1011.72 1011.33 1011.17 1011.01 1010.82 1010.77 1010.73 1010.76 1010.87 1010.81 1010.95 1011.31 1011.59
1015.58 1015.59 1015.24 1014.95 1014.84 1014.72 1014.54 1014.50 1014.56 1014.62 1014.72 1014.72 1014.72 1014.74 1014.73 1014.71 1014.56 1014.37 1014.30 1014.26 1014.24 1014.22 1014.22 1014.14 1013.91 1013.64 1013.34 1013.06 1012.70 1012.44 1012.10 1011.78 1011.79 1011.63 1011.44 1011.44 1011.48 1011.47 1011.41 1011.37 1011.49 1011.69 1011.87
1015.60 1015.51 1015.16 1014.85 1014.66 1014.33 1014.16 1014.16 1014.27 1014.33 1014.29 1014.25 1014.25 1014.29 1014.28 1014.16 1014.00 1013.97 1014.04 1014.06 1014.07 1014.09 1013.98 1013.86 1013.72 1013.61 1013.37 1013.02 1012.66 1012.53 1012.35 1012.28 1012.16 1012.04 1012.02 1012.03 1011.90 1011.84 1011.77 1011.78 1011.83 1011.86 1012.13
1015.59 1015.55 1015.26 1014.93 1014.60 1014.26 1014.11 1013.92 1013.78 1013.76 1013.76 1013.84 1013.80 1013.77 1013.80 1013.70 1013.71 1013.65 1013.46 1013.48 1013.52 1013.64 1013.70 1013.68 1013.53 1013.39 1013.25 1013.12 1012.90 1012.64 1012.55 1012.48 1012.38 1012.30 1012.28 1012.36 1012.17 1012.18 1012.14 1012.04 1011.98 1012.12 1012.26
1015.76 1015.74 1015.38 1015.11 1014.81 1014.50 1014.00 1013.73 1013.44 1013.25 1013.07 1012.95 1013.10 1013.25 1013.17 1013.20 1013.29 1013.22 1013.21 1013.20 1013.07 1012.80 1012.89 1013.07 1013.20 1013.10 1012.92 1012.85 1012.85 1012.88 1012.72 1012.74 1012.78 1012.72 1012.65 1012.62 1012.42 1012.59 1012.50 1012.45 1012.45 1012.45 1012.47
1015.75 1015.66 1015.39 1015.07 1014.75 1014.42 1013.96 1013.51 1013.11 1012.80 1012.51 1012.37 1012.62 1012.75 1012.79 1012.80 1012.78 1012.67 1012.75 1012.79 1012.62 1012.56 1012.21 1012.00 1012.08 1012.20 1012.33 1012.52 1012.62 1012.61 1012.64 1012.62 1012.70 1012.77 1012.82 1012.79 1012.74 1012.84 1012.87 1012.96 1012.97 1012.99 1013.04
1015.96 1015.72 1015.49 1015.04 1014.66 1014.40 1013.97 1013.45 1013.02 1012.73 1012.37 1012.15 1012.17 1012.24 1012.24 1012.22 1012.16 1012.05 1011.98 1012.07 1012.31 1012.42 1012.39 1012.15 1012.01 1011.86 1011.81 1011.85 1011.91 1012.21 1012.50 1012.75 1012.70 1012.69 1012.79 1012.88 1012.95 1013.00 1013.11 1013.15 1013.20 1013.31 1013.46
1016.15 1015.88 1015.60 1015.13 1014.72 1014.26 1013.82 1013.30 1012.95 1012.62 1012.34 1012.09 1011.85 1011.69 1011.63 1011.54 1011.55 1011.52 1011.43 1011.36 1011.50 1011.71 1011.93 1012.01 1011.89 1011.77 1011.76 1011.81 1011.93 1011.98 1012.08 1012.32 1012.74 1012.89 1012.92 1012.95 1013.22 1013.25 1013.20 1013.23 1013.37 1013.52 1013.63
1016.38 1016.20 1015.79 1015.19 1014.75 1014.29 1013.77 1013.08 1012.74 1012.41 1012.13 1011.88 1011.69 1011.40 1011.31 1011.22 1011.25 1011.02 1010.95 1011.01 1011.04 1011.18 1011.48 1011.59 1011.55 1011.45 1011.22 1011.13 1011.19 1011.53 1011.87 1011.88 1012.03 1012.52 1012.72 1012.97 1013.09 1013.16 1013.33 1013.33 1013.32 1013.40 1013.59
1016.64 1016.23 1015.66 1015.01 1014.62 1014.25 1013.71 1013.04 1012.48 1012.08 1011.79 1011.58 1011.23 1010.97 1010.83 1010.74 1010.73 1010.65 1010.80 1010.79 1010.84 1010.87 1010.95 1011.03 1011.09 1011.05 1010.97 1011.00 1011.11 1011.27 1011.56 1011.67 1011.88 1011.98 1012.07 1012.41 1012.61 1012.98 1013.14 1013.24 1013.27 1013.30 1013.38
1016.54 1016.08 1015.60 1015.15 1014.64 1014.18 1013.61 1012.96 1012.46 1012.04 1011.62 1011.22 1010.90 1010.62 1010.39 1010.17 1010.02 1010.02 1009.97 1010.04 1010.35 1010.44 1010.50 1010.57 1010.54 1010.64 1010.53 1010.59 1010.81 1011.00 1011.21 1011.39 1011.42 1011.63 1011.98 1012.03 1012.28 1012.48 1012.86 1013.18 1013.31 1013.20 1013.10
1016.50 1016.16 1015.81 1015.24 1014.74 1014.27 1013.69 1013.08 1012.47 1012.09 1011.66 1011.24 1010.81 1010.49 1010.27 1009.91 1009.52 1009.38 1009.39 1009.36 1009.49 1009.42 1009.41 1009.48 1009.86 1010.12 1010.13 1010.23 1010.47 1010.91 1011.30 1011.38 1011.27 1011.28 1011.46 1011.79 1011.99 1012.14 1012.26 1012.69 1013.16 1013.12 1012.85
1016.16 1015.87 1015.60 1015.12 1014.79 1014.33 1013.84 1013.23 1012.58 1012.03 1011.60 1011.07 1010.66 1010.23 1009.85 1009.49 1009.06 1008.80 1008.70 1008.69 1008.68 1008.73 1008.79 1008.77 1008.82 1009.03 1009.26 1009.33 1009.63 1010.10 1010.68 1011.00 1011.12 1011.21 1011.19 1011.28 1011.62 1011.79 1012.24 1012.30 1012.64 1012.91 1012.84
1015.95 1015.71 1015.51 1015.15 1014.71 1014.21 1013.72 1013.31 1012.75 1012.24 1011.72 1011.21 1010.62 1010.00 1009.41 1009.03 1008.60 1008.30 1008.12 1008.09 1008.22 1008.36 1008.29 1008.23 1008.22 1008.26 1008.35 1008.66 1008.80 1009.17 1009.61 1009.82 1010.22 1010.47 1010.70 1010.84 1011.26 1011.49 1011.74 1012.02 1012.24 1012.57 1012.69
1015.91 1015.76 1015.55 1015.10 1014.59 1014.24 1013.86 1013.40 1012.90 1012.30 1011.73 1011.10 1010.43 1009.81 1009.26 1008.66 1008.16 1007.89 1007.68 1007.74 1007.77 1007.81 1007.81 1008.01 1008.05 1007.74 1007.56 1007.73 1007.97 1008.32 1008.64 1009.05 1009.31 1009.63 1009.97 1010.35 1010.61 1011.11 1011.46 1011.76 1012.08 1012.35 1012.44
1016.11 1015.81 1015.63 1015.11 1014.46 1014.08 1013.79 1013.35 1012.56 1011.96 1011.36 1010.77 1010.19 1009.63 1009.04 1008.51 1008.04 1007.74 1007.48 1007.52 1007.46 1007.44 1007.37 1007.38 1007.23 1007.15 1007.29 1007.23 1007.37 1007.63 1007.95 1008.26 1008.59 1009.08 1009.51 1009.89 1010.22 1010.86 1011.12 1011.52 1011.93 1012.09 1012.37
1016.02 1015.85 1015.55 1015.07 1014.44 1013.80 1013.36 1013.04 1012.40 1011.75 1011.30 1010.77 1010.15 1009.57 1008.98 1008.26 1007.74 1007.42 1007.21 1007.05 1007.05 1006.98 1006.86 1006.84 1006.77 1006.67 1006.59 1006.49 1006.83 1007.18 1007.53 1007.87 1008.23 1008.72 1009.10 1009.65 1010.21 1010.76 1011.08 1011.19 1011.47 1011.77 1012.13
1015.96 1015.75 1015.39 1014.90 1014.35 1013.79 1013.12 1012.52 1011.88 1011.38 1010.96 1010.59 1010.08 1009.49 1008.89 1008.32 1007.72 1007.23 1006.81 1006.52 1006.29 1006.10 1005.83 1005.77 1005.85 1006.01 1006.14 1006.06 1006.25 1006.72 1007.11 1007.34 1007.75 1008.41 1008.87 1009.34 1009.87 1010.32 1010.69 1011.00 1011.20 1011.38 1011.60
1015.80 1015.42 1015.00 1014.64 1014.20 1013.72 1013.13 1012.50 1011.86 1011.54 1010.97 1010.25 1009.77 1009.28 1008.72 1008.12 1007.64 1007.18 1006.43 1005.95 1005.42 1005.14 1004.95 1004.78 1004.77 1004.92 1005.02 1005.88 1006.07 1006.09 1006.34 1006.72 1007.16 1007.74 1008.20 1008.70 1009.20 1009.68 1010.00 1010.37 1010.68 1010.99 1011.27
Wind_Speed
8 6 4 3 3 3 4 1 2 3 2 2 3 2 3 4 3 5 6 7 6 6 7 7 8 7 7 8 9 7 7 6 4 3 5 5 6 7 4 6 5 3 6
7 6 6 6 5 4 3 4 3 2 2 1 2 2 3 3 4 3 6 9 9 9 7 7 8 10 8 9 9 8 6 7 4 3 3 3 2 4 5 3 5 7 8
7 7 7 7 6 6 7 5 3 3 3 3 3 3 3 3 4 4 4 4 9 7 6 7 9 9 8 8 6 5 3 9 4 6 5 1 2 2 3 6 6 9 4
4 2 1 4 5 5 5 3 4 4 4 3 3 4 3 4 3 3 4 4 7 7 6 8 9 8 8 9 5 6 5 3 4 2 3 3 3 3 2 1 1 9 6
3 1 2 4 4 3 4 5 5 4 5 4 4 4 5 3 4 4 6 7 5 6 5 8 9 8 6 8 10 10 10 3 3 3 1 3 2 3 3 3 3 1 1
1 1 3 4 5 5 5 5 6 6 5 4 5 6 7 6 4 4 4 5 4 6 4 7 7 8 7 6 7 5 6 6 6 5 4 3 2 1 2 2 2 2 1
3 4 6 5 5 5 5 5 7 7 6 7 7 7 7 6 6 6 4 4 7 7 5 5 5 5 7 8 6 6 6 5 5 5 3 2 2 2 1 2 1 2 1
5 6 7 7 7 7 7 6 6 7 7 7 8 7 7 4 4 5 4 3 3 4 5 5 5 5 6 6 6 3 4 6 6 7 6 3 4 4 3 2 2 1 2
7 7 8 7 6 6 6 6 6 6 7 8 7 7 7 7 6 7 5 4 4 3 4 6 5 6 6 6 6 4 5 5 5 5 6 4 4 4 4 3 3 0 3
6 7 7 7 5 6 5 4 5 7 7 7 7 6 7 7 7 6 6 6 5 4 4 5 4 5 6 6 6 4 4 5 3 3 5 5 3 3 3 3 3 2 2
5 6 7 7 7 6 6 7 6 7 7 7 7 7 7 7 7 6 6 6 5 4 5 5 5 5 4 5 6 4 4 3 2 3 4 4 4 3 3 3 3 3 3
7 6 7 7 7 7 7 7 7 7 8 7 7 8 8 7 7 7 7 7 6 6 6 4 5 5 3 2 3 4 3 3 3 2 3 2 2 3 3 2 3 3 3
7 6 6 7 7 8 7 8 7 8 7 6 6 7 7 7 8 7 7 7 7 7 7 7 7 6 4 2 3 1 1 1 2 2 2 1 1 1 1 1 2 2 2
8 7 8 8 8 8 8 8 8 7 7 5 6 7 8 8 7 8 8 7 6 6 7 6 6 5 5 5 5 4 3 3 2 1 1 1 2 1 1 1 1 1 1
8 8 9 10 13 11 8 9 8 8 7 7 7 8 7 7 7 8 8 7 7 7 7 6 6 6 5 4 5 5 4 4 4 3 3 3 3 2 3 2 2 1 1
10 14 15 14 11 11 12 12 10 8 6 7 8 8 7 7 8 8 7 7 7 7 7 7 7 7 6 10 11 6 5 6 6 6 5 4 5 4 3 2 2 0 1
11 13 14 12 12 11 13 14 11 7 7 7 8 7 7 7 8 8 7 8 8 6 8 8 7 8 7 12 13 12 4 5 6 5 5 5 5 6 4 6 6 6 6
14 14 10 11 12 11 11 11 9 8 8 8 8 7 7 8 7 7 8 8 6 8 8 8 7 6 7 13 16 14 6 5 6 6 6 5 5 6 5 3 5 6 5
10 9 9 10 11 11 10 11 12 9 8 10 8 7 7 8 8 8 9 7 6 7 9 7 8 8 7 11 15 12 5 6 6 5 5 5 5 7 10 5 4 5 3
7 7 9 10 9 10 10 11 12 12 12 11 12 10 9 9 8 8 8 7 8 10 5 7 8 11 8 14 18 14 5 6 4 5 6 13 7 9 10 5 4 3 3
8 8 8 9 9 10 9 10 11 12 13 12 13 13 11 10 9 7 5 6 6 6 6 8 7 8 9 9 19 20 8 7 5 5 4 4 13 12 10 9 4 3 2
7 7 7 11 11 9 7 10 10 10 10 10 11 12 12 9 8 7 6 5 6 6 8 7 7 7 8 16 18 22 21 14 7 5 5 5 13 12 9 7 5 8 4
6 6 6 10 9 7 6 9 11 11 12 12 12 11 12 10 8 6 6 4 5 5 6 6 8 7 6 7 19 20 22 22 8 4 6 9 10 11 7 8 9 7 1
6 6 8 9 12 11 11 8 9 9 8 10 11 10 9 11 7 4 4 4 5 6 7 7 8 7 6 7 6 9 10 18 13 11 7 7 8 8 6 6 5 3 3
6 6 7 9 12 12 13 13 12 10 9 9 10 10 8 9 10 7 5 5 7 9 7 8 7 7 7 8 12 12 9 8 10 8 4 4 3 4 4 4 5 4 4
9 9 11 8 10 12 13 13 12 12 12 11 9 9 8 7 7 7 9 11 15 15 17 18 10 6 12 12 18 20 20 19 20 8 7 7 6 7 6 6 5 5 7
Wind_Direction
113 115 133 158 190 230 234 288 323 299 338 338 326 330 333 320 323 303 304 320 319 311 323 348 331 316 308 301 296 281 272 280 260 289 282 249 249 238 289 281 267 292 304
132 159 189 193 213 249 286 264 252 306 319 340 313 291 321 304 293 308 352 327 332 330 350 344 322 317 308 290 285 284 296 278 254 238 249 292 42 47 25 109 60 13 7
162 172 191 204 212 218 223 236 248 269 288 306 320 311 314 328 318 337 323 315 328 327 355 339 316 320 314 293 275 294 9 281 287 256 230 303 138 125 5 40 97 52 83
119 130 229 254 234 238 200 190 240 248 260 275 308 308 298 302 297 319 287 333 312 323 360 334 323 322 329 326 308 321 275 246 270 305 260 211 145 154 145 38 92 123 128
67 71 237 255 266 272 242 225 239 248 254 244 259 275 286 287 291 299 311 321 314 325 350 332 330 328 337 336 345 6 357 341 259 208 210 44 59 79 118 167 173 283 282
34 242 251 258 266 260 243 231 238 251 248 243 259 266 268 278 295 297 307 313 329 322 339 337 333 332 329 339 329 326 345 5 17 26 54 28 21 97 110 123 129 175 123
344 319 309 302 290 286 270 235 227 247 241 237 236 250 257 265 273 283 291 303 313 314 312 329 327 333 329 329 337 341 348 9 26 39 51 44 37 21 45 123 110 113 53
353 338 312 291 272 261 254 242 239 241 228 230 238 244 253 247 253 261 263 256 255 266 298 317 322 330 316 326 329 339 358 16 18 23 26 48 30 35 21 55 149 124 145
357 339 323 315 317 311 286 257 251 249 232 229 230 235 240 240 239 250 256 250 260 263 289 301 315 325 335 331 329 360 3 36 16 10 19 36 30 31 24 24 60 186 193
2 344 341 330 313 303 286 289 257 251 247 240 229 232 237 242 241 242 256 261 268 282 297 294 294 309 316 318 332 360 7 28 21 32 43 32 26 43 30 25 22 39 101
350 334 329 328 325 334 320 275 249 244 247 240 239 234 239 243 247 244 237 237 237 259 268 290 306 300 314 340 339 343 356 10 51 45 84 66 39 42 31 21 33 47 49
338 333 343 335 332 328 317 309 290 259 243 232 227 233 233 234 238 243 241 237 230 224 230 235 278 282 282 306 321 326 354 353 13 18 82 83 85 81 54 47 62 64 75
332 317 326 320 318 313 312 299 296 284 263 244 236 245 244 237 235 234 234 236 223 233 231 209 213 229 228 230 268 277 293 23 31 21 29 89 37 101 103 63 96 64 36
328 327 323 318 313 317 310 311 317 313 288 265 254 252 246 238 237 234 227 230 225 228 244 244 235 227 215 204 207 205 212 215 164 135 18 57 13 80 89 6 107 82 53
324 330 327 327 326 320 315 313 306 307 307 276 263 254 254 246 244 244 233 223 212 221 229 241 241 231 227 221 216 212 207 192 187 192 206 127 83 52 33 44 14 17 295
350 339 322 315 319 321 316 315 313 312 310 307 266 265 264 255 246 244 231 223 221 218 220 231 228 231 223 221 201 192 205 203 191 194 197 162 173 200 214 251 276 46 92
327 320 315 322 322 324 319 311 305 302 304 300 278 271 264 257 247 242 233 230 226 215 220 222 220 228 221 228 212 212 219 211 203 208 185 191 188 194 207 227 228 234 234
320 315 319 316 319 319 311 313 318 315 307 302 290 282 268 261 253 240 232 226 213 221 224 228 221 224 227 226 216 216 204 231 211 202 204 199 187 194 202 222 226 215 230
304 307 314 314 318 320 320 323 322 316 316 314 304 306 307 279 257 244 242 230 217 217 214 208 206 214 221 224 210 214 207 228 225 207 196 201 209 212 186 185 246 252 248
296 310 312 310 314 310 319 318 318 321 320 319 314 304 300 291 272 249 248 238 229 233 211 218 206 209 206 213 208 208 197 214 214 218 202 214 198 225 206 191 218 239 261
322 324 318 315 315 321 318 320 322 320 318 317 315 313 303 291 275 261 248 238 232 233 227 221 209 208 202 210 214 211 203 205 198 195 193 191 217 222 220 224 189 215 205
323 327 324 321 323 323 323 316 310 304 308 310 310 311 310 304 300 265 259 256 244 229 231 229 234 227 210 207 218 214 215 210 195 192 183 188 211 201 219 228 235 251 251
322 323 323 314 314 313 316 310 306 313 315 319 316 312 310 307 299 276 264 262 251 238 239 228 234 227 213 211 213 221 220 218 206 166 183 187 192 194 213 234 250 248 172
320 318 315 313 313 321 321 306 301 298 297 298 303 306 307 310 299 283 255 233 238 243 245 240 240 237 211 201 193 212 218 224 219 193 203 175 167 180 204 229 242 172 206
312 310 302 310 313 317 318 319 316 316 306 304 303 303 302 307 307 287 263 246 239 235 241 239 237 226 229 222 193 195 203 200 208 178 156 164 156 177 199 203 208 200 198
309 309 308 302 300 308 309 311 318 319 307 302 305 300 299 299 297 296 298 261 263 254 248 254 228 225 228 248 222 211 210 205 202 186 181 184 187 201 198 200 201 200 208